Regional Weather Roundup
Issued by NWS Green Bay, WI

Home | Current Version | Previous Version | Text Only | Print | Product List | Glossary On
Versions: 1 2 3 4 5 6 7 8 9 10 11 12 13 14 15 16 17 18 19 20 21 22 23 24 25 26 27 28 29 30 31 32 33 34 35 36 37 38 39 40 41 42 43 44 45 46 47 48 49 50
000
ASUS43 KGRB 260100
RWRGRB

NORTH-CENTRAL AND NORTHEAST WISCONSIN REGIONAL WEATHER ROUNDUP
NATIONAL WEATHER SERVICE GREEN BAY WI
700 PM CST SAT FEB 25 2017

WIZ005-009-010>012-018-019-260200-
NORTH CENTRAL WISCONSIN

CITY           SKY/WX    TMP DP  RH WIND       PRES   REMARKS
IRONWOOD       MOCLDY    14   6  70 CALM      29.78R
MANITOWISH WTR NOT AVBL
ARBOR VITAE    NOT AVBL
EAGLE RIVER    NOT AVBL
LAND O LAKES   NOT AVBL
RHINELANDER    CLEAR     15   5  64 W6        29.79R WCI   6
PHILLIPS       NOT AVBL
ANTIGO         NOT AVBL
TOMAHAWK       NOT AVBL
MERRILL        NOT AVBL
$$

WIZ013-073-260200-
NORTHEAST WISCONSIN

CITY           SKY/WX    TMP DP  RH WIND       PRES   REMARKS
IRON MOUNTAIN  CLEAR     12   5  73 CALM      29.78R
MARINETTE      CLEAR     17  10  74 SW3       29.87R
$$

WIZ017-030-035>037-045-260200-
CENTRAL WISCONSIN

CITY           SKY/WX    TMP DP  RH WIND       PRES   REMARKS
MEDFORD        NOT AVBL
WAUSAU         CLEAR     21   7  54 W15       29.85R WCI   8
MOSINEE        CLEAR     18   9  68 W8        29.87R WCI   7
MARSHFIELD     CLEAR     18   6  59 SW7       29.86S WCI   9
WISC RAPIDS    CLEAR     21   9  59 W7        29.91R
STEVENS POINT  NOT AVBL
WAUPACA        NOT AVBL
SHAWANO        PTCLDY    21   9  59 SW6       29.88R
CLINTONVILLE   NOT AVBL
WAUTOMA        PTCLDY    16   9  74 W8        29.93R WCI   5
$$

WIZ038-039-048-051-260200-
FOX VALLEY

CITY           SKY/WX    TMP DP  RH WIND       PRES   REMARKS
NWS GREEN BAY  CLEAR     19  10  68 SW7       29.89R WCI  10
APPLETON       PTCLDY    18   5  57 W9        29.88R WCI   6
OSHKOSH        CLEAR     19   9  65 W6        29.91R
FOND DU LAC    CLEAR     19   9  65 SW5       29.92R
$$

WIZ022-050-052-260200-
EAST CENTRAL WISCONSIN

CITY           SKY/WX    TMP DP  RH WIND       PRES   REMARKS
EPHRAIM        NOT AVBL
WASHINGTON ISL NOT AVBL
STURGEON BAY   CLEAR     18  11  74 W12       29.87R WCI   5
MANITOWOC      NOT AVBL
SHEBOYGAN      PTCLDY    19  10  68 W10       29.91R WCI   7
$$

LMZ563-521-522-541>543-260200-
LAKESHORE

STATION/POSITION TIME  TEMP    WIND        PRES    VSBY  WAVE
                       AIR SEA DIR/SP/G                  HT/PER
                 (UTC) (F)     (DEG/KT/KT) (MB)    (MI)  (FT/S)
SHEBOYGAN LKSHOR 0000   22     270/ 14/ 18 1013.3R
KEWAUNEE LKSHORE 0030   20     270/ 12/ 14 1011.5R
NORTHPORT PIER   0040   23     290/  2/  2 1010.5R
SISTER BAY LKSHO 0005   21        CALM       N/A
MENOMINEE LKSHOR 0030   22     220/  7/  9 1010.3R
$$




USA.gov is the U.S. government's official web portal to all federal, state and local government web resources and services.